Location: Arrien
(42.8963°N, 1.0429°E)
Time: 11:13:51
(UTC+00:00)

BlueWalker 3 - Visible Passes

Search period start: 17 February 2026 00:00
Search period end: 27 February 2026 00:00
Orbit: 451 x 461 km, 53.2° (Epoch: 16 February)

Date Brightness Start Highest point End Pass type
(mag) Time Alt. Az. Time Alt. Az. Time Alt. Az.
20 Feb 5.0 06:01:47 10° SSE 06:03:20 12° SE 06:04:52 10° ESE visible
23 Feb 3.1 05:49:23 10° SSW 05:52:46 40° SE 05:56:10 10° ENE visible
24 Feb 3.5 05:13:45 10° SSW 05:16:56 30° SE 05:20:08 10° ENE visible
25 Feb 3.8 04:39:45 18° SSE 04:41:07 23° SE 04:44:01 10° ENE visible
26 Feb 4.4 04:05:47 17° ESE 04:05:47 17° ESE 04:07:44 10° E visible
26 Feb 1.8 05:39:31 15° WSW 05:42:24 63° NNW 05:45:59 10° NE visible
